Regional Weather Roundup
Issued by NWS

Home | Current Version | Previous Version | Graphics & Text | Print | Product List | Glossary Off
Versions: 1 2 3 4 5 6 7 8 9 10 11 12 13 14 15 16 17 18 19 20 21 22 23 24 25 26 27 28 29 30 31 32 33 34 35 36 37 38 39 40 41 42 43 44 45 46 47 48 49 50

000
ASUS43 KDMX 200801
RWRIA

WEATHER ROUNDUP FOR IOWA
NATIONAL WEATHER SERVICE DES MOINES IA
300 AM CDT SUN AUG 20 2017

NOTE: "FAIR" INDICATES FEW OR NO CLOUDS BELOW 12,000 FEET WITH NO
SIGNIFICANT WEATHER AND/OR OBSTRUCTIONS TO VISIBILITY.

* - THESE STATIONS ARE NOT NWS STATIONS...THUS NOT UNDER NWS
QUALITY CONTROL.  THEY ALSO DO NOT REPORT WEATHER SUCH
AS PRECIPITATION OR FOG.

IAZ001>003-012>014-020>022-031>034-043>046-200900-
   NORTHWEST IOWA

CITY           SKY/WX    TMP DP  RH WIND       PRES   REMARKS
CARROLL *      DRIZZLE   70  66  88 W12       29.95R
DENISON *      RAIN      68  64  88 S15G21    29.94F
LE MARS *      LGT RAIN 102 N/A N/A S16G24    29.84S
ORANGE CITY *  CLOUDY    73  66  78 S14G22    29.85R
SHELDON *      CLOUDY    75  63  64 S9G18     29.85R
SIOUX CITY     LGT RAIN  71  67  87 S13G22    29.83F
SPENCER        CLOUDY    70  62  76 SE7       29.87R
STORM LAKE *   CLOUDY    72  63  73 S16G28    29.88R
$$

IAZ055>058-069>071-079>083-090>094-200900-
   SOUTHWEST IOWA

CITY           SKY/WX    TMP DP  RH WIND       PRES   REMARKS
ATLANTIC *     DRIZZLE   68  66  94 N8        29.96R
AUDUBON *      HVY RAIN  68  63  83 CALM      29.96S
CLARINDA *       N/A     75  70  83 VRB6G22   29.93R
COUNCIL BLFS * LGT RAIN  68  68 100 W10       29.98R
CRESTON *      CLOUDY    73  66  78 SE9       29.92S
HARLAN  *      DRIZZLE   68  66  94 NE9       29.98F
LAMONI         CLOUDY    73  64  73 S8        29.93F
RED OAK *      HVY RAIN  70  68  94 W7G16     29.99R
SHENANDOAH *   HVY RAIN  72  70  94 W25G31    30.00R VSB 1
$$

IAZ047>049-059>061-072>074-084-200900-
   CENTRAL IOWA

CITY           SKY/WX    TMP DP  RH WIND       PRES   REMARKS
AMES           CLOUDY    66  66 100 CALM      29.92S
ANKENY *       CLOUDY    68  64  88 CALM      29.94R
BOONE *        CLOUDY    68  66  94 VRB6      29.92R
CHARITON *     CLOUDY    68  61  77 CALM      29.93S
DES MOINES     CLOUDY    71  61  70 S3        29.92R
GRINNELL*      CLOUDY    67  64  90 CALM      29.95R
KNOXVILLE *    LGT RAIN  68  63  83 S7        29.91R
MARSHALLTOWN   CLOUDY    67  65  93 SE6       29.92R
NEWTON *       CLOUDY    66  64  94 SE5       29.93R
PELLA *        PTCLDY    68  65  90 CALM      29.93R
$$

IAZ004>006-015-016-023>025-035-036-200900-
   NORTH CENTRAL IOWA

CITY           SKY/WX    TMP DP  RH WIND       PRES   REMARKS
ALGONA *       CLOUDY    68  68 100 SE6       29.89S
CLARION *      CLOUDY    68  68 100 SE10      29.90S
ESTHERVILLE    CLOUDY    66  65  96 S10       29.86R
FORT DODGE *   CLOUDY    70  63  78 S9        29.90S
MASON CITY     CLOUDY    65  62  90 S9        29.93R
FOREST CITY *    N/A     64  63  94 SE8       29.90S
WEBSTER CITY * CLOUDY    68  64  88 S6        29.90R
IOWA FALLS *     N/A     67  64  92 SE3       29.94R
$$

IAZ007>011-017>019-026>030-037>042-050>054-066-200900-
   NORTHEAST IOWA

CITY           SKY/WX    TMP DP  RH WIND       PRES   REMARKS
CEDAR RAPIDS   CLOUDY    65  63  93 SE6       29.93F
CHARLES CITY * CLOUDY    66  64  94 SE7       29.94R
CLINTON *      CLOUDY    62  60  93 E6        29.97F
DECORAH *      MOCLDY    63  61  94 S5        29.93S
DUBUQUE        CLEAR     65  60  84 S9        29.97F
MONTICELLO *   CLOUDY    64  61  88 CALM      29.95S
OELWEIN *      CLOUDY    64  63  94 SE7       29.95R
WATERLOO       CLOUDY    68  62  81 SE8       29.92R
$$

IAZ064-065-067-068-078-200900-
   EAST CENTRAL IOWA

CITY           SKY/WX    TMP DP  RH WIND       PRES   REMARKS
DAVENPORT      CLOUDY    64  60  87 SE6       29.97F
IOWA CITY      CLOUDY    66  62  87 SE3       29.95F
MUSCATINE *    CLEAR     63  61  94 CALM      29.94F
QUAD CITIES    PTCLDY    65  59  81 E6        29.95F
$$

IAZ062-063-075>077-085>089-095>099-200900-
   SOUTHEAST IOWA

CITY           SKY/WX    TMP DP  RH WIND       PRES   REMARKS
BURLINGTON     PTCLDY    70  66  87 S9        29.93F
FAIRFIELD *    CLOUDY    66  64  94 SE3       29.93R
FORT MADISON * CLOUDY    72  68  88 S7        29.95S
KEOKUK *       CLOUDY    70  66  88 SE5       29.93S
OSKALOOSA *      N/A     66  64  96 SE3       29.93R
OTTUMWA        CLOUDY    68  65  90 S6        29.92S
WASHINGTON *   CLEAR     61  61 100 CALM      29.95R
$$

ABBREVIATIONS USED IN REMARKS
   TC - TEMPERATURES IN CELSIUS
  WCI - WIND CHILL INDEX
   HX - HEAT INDEX
  VSB - VISIBILITY
$$




USA.gov is the U.S. government's official web portal to all federal, state and local government web resources and services.